Starlink deployment rail

Debris
NORAD ID: 47436 Int'l Des: 2021-006 Owner: SPXS Country: US
LEOCIRCULARRETROGRADESSO

Über Starlink deployment rail

Beschreibung wird geladen...

Live-Position

3D-Globus wird geladen...

Nächste Überflüge

Höhenverlauf

Altitude vs Time

uPlot chart will show altitude changes over time

Zweizeiliger Elementsatz

1 47436U 21006Z 25308.84601112 .00006015 00000-0 21568-3 0 9991
2 47436 97.2579 351.4119 0008757 276.7691 83.2553 15.29047230265073
Epoch: 4. Nov. 2025 • Age: 6 hours

Aktueller Status

Höhe 484.2 km
Geschwindigkeit 7.62 km/s
Subsatellitenpunkt -16.55°S, 96.82°E
Startdatum 24. Jan. 2021
Alter 4.7 years
Typ debris

Technische Details

Klassifizierung Component
Masse 100.00 kg
Trockenmasse 100.00 kg
Gesamtmasse 100.00 kg
Länge 7.00 m
Durchmesser 0.02 m
Spannweite 7.00 m
Form Cyl
Hersteller SPXS
Phasenstatus In Orbit
Besitzer/Staat SPXS/US

Große Konstellationen

Loading constellations...